Location: Unspecified
(44.0704°N, 88.6889°W)
Time: 19:44:26
(UTC+02:00)

Altair - Pass Details

Date: 22 June 2019
Orbit: 1501 x 1683 km, 47.2° (Epoch: 24 August)

Event Time Altitude Azimuth Distance (km) Brightness Sun altitude
Rises 08:57:37 0° 292° (WNW) 4,832 10.2 -21.1°
Reaches altitude 10° 09:00:42 10° 291° (WNW) 3,867 9.7 -20.9°
Maximum altitude 09:10:38 77° 208° (SSW) 1,706 7.5 -20.4°
Drops below altitude 10° 09:20:46 10° 125° (SE) 3,939 9.5 -19.8°
Sets 09:23:56 0° 123° (ESE) 4,926 10.0 -19.6°
